This demonstration page uses our WeatherBlox Daily Observations layout. Learn more.

36.17497, -115.13722

Hourly Observations for October 19, 2018

Temp ( °F °C ) Dew Point ( °F °C ) Humidity (%) Winds ( mph kmh ) Pressure ( in mb ) Visibility ( mi km ) Precip ( " mm )
12:53 am 00:53 Clear 59 15 33 0.6 38 38 N 6 9 30.18 1022 10 16.09344 0 0
1:53 am 01:53 Clear 58 14.4 33 0.6 39 39 NW 5 7 30.18 1022 10 16.09344 0 0
2:53 am 02:53 Clear 58 14.4 32 0 38 38 NE 5 7 30.18 1022 10 16.09344 0 0
3:53 am 03:53 Clear 56 13.3 33 0.6 42 42 N 3 6 30.18 1022 10 16.09344 0 0
4:53 am 04:53 Clear 54 12.2 32 0 43 43 N 7 11 30.21 1023 10 16.09344 0 0
5:53 am 05:53 Clear 55 12.8 32 0 42 42 NNW 6 9 30.21 1023 10 16.09344 0 0
6:53 am 06:53 Sunny 56 13.3 32 0 40 40 NNW 8 13 30.24 1024 10 16.09344 0 0
7:53 am 07:53 Sunny 61 16.1 32 0 34 34 NNW 8 13 30.24 1024 10 16.09344 0 0
8:53 am 08:53 Sunny 65 18.3 33 0.6 31 31 SE 6 9 30.27 1025 10 16.09344 0 0
9:53 am 09:53 Sunny 68 20 32 0 26 26 Calm 30.24 1024 10 16.09344 0 0
10:53 am 10:53 Sunny 72 22.2 31 -0.6 22 22 N 3 6 30.24 1024 10 16.09344 0 0
11:53 am 11:53 Sunny 76 24.4 29 -1.7 18 18 ENE 14 22 30.21 1023 10 16.09344 0 0
12:53 pm 12:53 Sunny 77 25 28 -2.2 16 16 E 20 31 30.18 1022 10 16.09344 0 0
1:53 pm 13:53 Sunny 78 25.6 27 -2.8 15 15 ENE 13 20 30.15 1021 10 16.09344 0 0
2:53 pm 14:53 Sunny 81 27.2 27 -2.8 14 14 ENE 13 20 30.12 1020 10 16.09344 0 0
3:53 pm 15:53 Sunny 81 27.2 26 -3.3 13 13 NE 16 26 30.09 1019 10 16.09344 0 0
4:53 pm 16:53 Sunny 80 26.7 27 -2.8 14 14 ENE 15 24 30.09 1019 10 16.09344 0 0
5:53 pm 17:53 Sunny 78 25.6 27 -2.8 15 15 ENE 13 20 30.09 1019 10 16.09344 0 0
6:53 pm 18:53 Clear 75 23.9 27 -2.8 17 17 NE 3 6 30.09 1019 10 16.09344 0 0
7:53 pm 19:53 Clear 70 21.1 27 -2.8 20 20 NW 8 13 30.09 1019 10 16.09344 0 0
8:53 pm 20:53 Clear 69 20.6 27 -2.8 21 21 NNW 6 9 30.09 1019 10 16.09344 0 0
9:53 pm 21:53 Clear 66 18.9 27 -2.8 23 23 N 7 11 30.12 1020 10 16.09344 0 0
10:53 pm 22:53 Clear 68 20 28 -2.2 22 22 NNE 7 11 30.12 1020 10 16.09344 0 0
11:53 pm 23:53 Clear 65 18.3 30 -1.1 27 27 NNE 3 6 30.12 1020 10 16.09344 0 0

Powered by AerisWeather